Location: Alpine
(43.1636°N, 111.0180°W)
Time: 05:31:19
(UTC+00:00)

Tiros 1 despin weight - Pass Details

Date: 30 May 2022
Orbit: 591 x 639 km, 48.2° (Epoch: 30 June)

Event Time Altitude Azimuth Distance (km) Brightness Sun altitude
Rises 00:41:23 0° 244° (WSW) 2,886 ? 21.8°
Reaches altitude 10° 00:43:43 10° 245° (WSW) 1,974 ? 21.4°
Maximum altitude 00:48:15 88° 335° (NNW) 615 ? 20.6°
Drops below altitude 10° 00:52:45 10° 65° (ENE) 1,950 ? 19.8°
Sets 00:55:02 0° 66° (ENE) 2,847 ? 19.4°
